,,PA_Meas_PMT16A,,PR_Meas_QMR101_102,,RH_Meas_QMH101,,SR_Meas_QMS101,,TA_Meas_QMH101,,GenWind,,GenWind,
time,status,PA,status,PR,status,RH,status,SR,status,TA,status,DirAvg,status,SpdAvg,
2013-02-28, 00:00:05,VALID,917.401,VALID,0,VALID,87.5016,VALID,0,VALID,20.621,VALID,228,VALID,0,
2013-02-28, 00:01:05,VALID,917.403,VALID,0,VALID,87.6159,VALID,0,VALID,20.6405,VALID,228,VALID,0.122656,
2013-02-28, 00:02:05,VALID,917.409,VALID,0,VALID,88.2334,VALID,0,VALID,20.699,VALID,309,VALID,0.969531,
2013-02-28, 00:03:05,VALID,917.36,VALID,0,VALID,88.7366,VALID,0,VALID,20.6795,VALID,6,VALID,1.98359,
2013-02-28, 00:04:05,VALID,917.38,VALID,0,VALID,88.4545,VALID,0,VALID,20.7185,VALID,25,VALID,1.78555,
2013-02-28, 00:05:05,VALID,917.401,VALID,0,VALID,88.2715,VALID,0,VALID,20.9331,VALID,28,VALID,0.603906,
2013-02-28, 00:06:05,VALID,917.365,VALID,0,VALID,86.5791,VALID,0,VALID,20.9722,VALID,146,VALID,0.788281,
2013-02-28, 00:07:05,VALID,917.378,VALID,0,VALID,86.7621,VALID,0,VALID,21.0112,VALID,146,VALID,0.549609,
2013-02-28, 00:08:05,VALID,917.322,VALID,0,VALID,87.0137,VALID,0,VALID,21.0112,VALID,144,VALID,0.790234,
2013-02-28, 00:09:05,VALID,917.307,VALID,0,VALID,86.6325,VALID,0,VALID,21.0307,VALID,128,VALID,0.8125,
2013-02-28, 00:10:05,VALID,917.326,VALID,0,VALID,86.8002,VALID,0,VALID,21.0502,VALID,127,VALID,0.601563,
2013-02-28, 00:11:05,VALID,917.321,VALID,0,VALID,86.9222,VALID,0,VALID,21.0697,VALID,127,VALID,0.328516,
2013-02-28, 00:12:05,VALID,917.301,VALID,0,VALID,87.2043,VALID,0,VALID,21.0502,VALID,127,VALID,0,
2013-02-28, 00:13:05,VALID,917.272,VALID,0,VALID,87.4406,VALID,0,VALID,21.0112,VALID,127,VALID,0.000390625,
2013-02-28, 00:14:05,VALID,917.258,VALID,0,VALID,88.1114,VALID,0,VALID,20.9722,VALID,127,VALID,0.217187,
2013-02-28, 00:15:05,VALID,917.314,VALID,0,VALID,88.4164,VALID,0,VALID,20.9136,VALID,127,VALID,0.308594,
2013-02-28, 00:16:05,VALID,917.333,VALID,0,VALID,88.7442,VALID,0,VALID,20.8535,VALID,127,VALID,0.226563,
2013-02-28, 00:17:05,VALID,917.361,VALID,0,VALID,88.8509,VALID,0,VALID,20.834,VALID,127,VALID,0,
2013-02-28, 00:18:05,VALID,917.354,VALID,0,VALID,88.4088,VALID,0,VALID,20.873,VALID,127,VALID,0,
2013-02-28, 00:19:05,VALID,917.362,VALID,0,VALID,88.5307,VALID,0,VALID,20.9511,VALID,127,VALID,0.133594,
2013-02-28, 00:20:05,VALID,917.339,VALID,0,VALID,87.9437,VALID,0,VALID,20.9917,VALID,127,VALID,0.380859,
2013-02-28, 00:21:05,VALID,917.302,VALID,0,VALID,88.5231,VALID,0,VALID,21.0112,VALID,127,VALID,0.589453,
2013-02-28, 00:22:05,VALID,917.284,VALID,0,VALID,89.0491,VALID,0,VALID,20.9511,VALID,127,VALID,0.500781,
2013-02-28, 00:23:05,VALID,917.271,VALID,0,VALID,89.1254,VALID,0,VALID,20.8535,VALID,104,VALID,0.710547,
2013-02-28, 00:24:05,VALID,917.27,VALID,0,VALID,89.6895,VALID,0,VALID,20.8145,VALID,85,VALID,0.655078,
2013-02-28, 00:25:05,VALID,917.248,VALID,0,VALID,90.0325,VALID,0,VALID,20.756,VALID,52,VALID,1.06055,
2013-02-28, 00:26:05,VALID,917.267,VALID,0,VALID,90.246,VALID,0,VALID,20.756,VALID,41,VALID,0.714063,
2013-02-28, 00:27:05,VALID,917.253,VALID,0,VALID,90.1316,VALID,0,VALID,20.795,VALID,41,VALID,0.55625,
2013-02-28, 00:28:05,VALID,917.241,VALID,0,VALID,90.0402,VALID,0,VALID,20.8145,VALID,41,VALID,0.488281,
2013-02-28, 00:29:05,VALID,917.26,VALID,0,VALID,89.9258,VALID,0,VALID,20.8535,VALID,41,VALID,0.807813,
2013-02-28, 00:30:05,VALID,917.237,VALID,0,VALID,89.7505,VALID,0,VALID,20.9136,VALID,41,VALID,0.00585938,
2013-02-28, 00:31:05,VALID,917.205,VALID,0,VALID,89.5675,VALID,0,VALID,20.912,VALID,41,VALID,0.517187,
2013-02-28, 00:32:05,VALID,917.19,VALID,0,VALID,89.5446,VALID,0,VALID,20.9706,VALID,41,VALID,0.634375,
2013-02-28, 00:33:05,VALID,917.21,VALID,0,VALID,89.6056,VALID,0,VALID,21.0096,VALID,41,VALID,0,
2013-02-28, 00:34:05,VALID,917.229,VALID,0,VALID,89.4455,VALID,0,VALID,21.0307,VALID,42,VALID,0.562891,
2013-02-28, 00:35:05,VALID,917.261,VALID,0,VALID,89.3922,VALID,0,VALID,21.0112,VALID,129,VALID,0.621094,
2013-02-28, 00:36:05,VALID,917.26,VALID,0,VALID,89.2016,VALID,0,VALID,20.9917,VALID,147,VALID,0.867188,
2013-02-28, 00:37:05,VALID,917.256,VALID,0,VALID,89.5599,VALID,0,VALID,20.912,VALID,147,VALID,0.171875,
2013-02-28, 00:38:05,VALID,917.282,VALID,0,VALID,89.8648,VALID,0,VALID,20.912,VALID,147,VALID,0.303125,
2013-02-28, 00:39:05,VALID,917.306,VALID,0,VALID,90.3375,VALID,0.107441,VALID,20.891,VALID,147,VALID,0.0582031,
2013-02-28, 00:40:05,VALID,917.325,VALID,0,VALID,90.4747,VALID,0,VALID,20.891,VALID,147,VALID,0,
2013-02-28, 00:41:05,VALID,917.329,VALID,0,VALID,90.4671,VALID,0.107441,VALID,20.891,VALID,147,VALID,0,
2013-02-28, 00:42:05,VALID,917.297,VALID,0,VALID,90.3375,VALID,0.107441,VALID,20.8714,VALID,147,VALID,0,
2013-02-28, 00:43:05,VALID,917.242,VALID,0,VALID,90.3527,VALID,0.107441,VALID,20.8925,VALID,147,VALID,0.0585938,
2013-02-28, 00:44:05,VALID,917.183,VALID,0,VALID,90.3908,VALID,0.107441,VALID,20.7934,VALID,143,VALID,0.553125,
2013-02-28, 00:45:05,VALID,917.2,VALID,0,VALID,90.7491,VALID,0.107441,VALID,20.7154,VALID,123,VALID,0.404687,
2013-02-28, 00:46:05,VALID,917.216,VALID,0,VALID,90.9702,VALID,0.107441,VALID,20.678,VALID,123,VALID,0,
2013-02-28, 00:47:05,VALID,917.245,VALID,0,VALID,91.1608,VALID,0.107441,VALID,20.6179,VALID,123,VALID,0,
2013-02-28, 00:48:05,VALID,917.241,VALID,0,VALID,91.3743,VALID,0.107441,VALID,20.6179,VALID,143,VALID,0.553125,
2013-02-28, 00:49:05,VALID,917.211,VALID,0,VALID,91.5572,VALID,0.107441,VALID,20.5789,VALID,143,VALID,0,
2013-02-28, 00:50:05,VALID,917.212,VALID,0,VALID,91.7326,VALID,0.107441,VALID,20.5594,VALID,143,VALID,0,
2013-02-28, 00:51:05,VALID,917.225,VALID,0,VALID,91.7173,VALID,0.107441,VALID,20.5399,VALID,143,VALID,0,
2013-02-28, 00:52:05,VALID,917.2,VALID,0,VALID,91.7783,VALID,0.107441,VALID,20.5594,VALID,143,VALID,0,
2013-02-28, 00:53:05,VALID,917.194,VALID,0,VALID,91.824,VALID,0,VALID,20.5609,VALID,143,VALID,0,
2013-02-28, 00:54:05,VALID,917.184,VALID,0,VALID,91.5801,VALID,0,VALID,20.5609,VALID,143,VALID,0,
2013-02-28, 00:55:05,VALID,917.162,VALID,0,VALID,91.542,VALID,0,VALID,20.5235,VALID,143,VALID,0,
2013-02-28, 00:56:05,VALID,917.204,VALID,0,VALID,91.6335,VALID,0,VALID,20.543,VALID,114,VALID,0.663281,
2013-02-28, 00:57:05,VALID,917.193,VALID,0,VALID,91.2828,VALID,0,VALID,20.4439,VALID,114,VALID,0.0808594,
2013-02-28, 00:58:05,VALID,917.215,VALID,0,VALID,91.4276,VALID,0,VALID,20.4259,VALID,114,VALID,0,
2013-02-28, 00:59:05,VALID,917.184,VALID,0,VALID,91.7707,VALID,0,VALID,20.3854,VALID,114,VALID,0,
2013-02-28, 01:00:05,VALID,917.133,VALID,0,VALID,91.7173,VALID,0,VALID,20.3674,VALID,114,VALID,0,
2013-02-28, 01:01:05,VALID,917.119,VALID,0,VALID,91.6563,VALID,0,VALID,20.2879,VALID,114,VALID,0.0789063,
2013-02-28, 01:02:05,VALID,917.144,VALID,0,VALID,92.1061,VALID,0,VALID,20.2309,VALID,28,VALID,0.953906,
2013-02-28, 01:03:05,VALID,917.145,VALID,0,VALID,92.6093,VALID,0,VALID,20.1724,VALID,27,VALID,0.698828,
2013-02-28, 01:04:05,VALID,917.176,VALID,0,VALID,93.1505,VALID,0,VALID,20.1919,VALID,27,VALID,0.135156,
2013-02-28, 01:05:05,VALID,917.162,VALID,0,VALID,93.2039,VALID,0,VALID,20.1529,VALID,27,VALID,0.394141,
2013-02-28, 01:06:05,VALID,917.184,VALID,0,VALID,92.9752,VALID,0,VALID,20.0749,VALID,27,VALID,0.6375,
2013-02-28, 01:07:05,VALID,917.196,VALID,0,VALID,92.9066,VALID,0,VALID,20.0163,VALID,27,VALID,0.548047,
2013-02-28, 01:08:05,VALID,917.181,VALID,0,VALID,93.1886,VALID,0,VALID,19.9578,VALID,27,VALID,0.575,
2013-02-28, 01:09:05,VALID,917.194,VALID,0,VALID,93.4859,VALID,0,VALID,19.9383,VALID,27,VALID,0.371094,
2013-02-28, 01:10:05,VALID,917.208,VALID,0,VALID,93.8519,VALID,0,VALID,19.9578,VALID,27,VALID,0.00820312,
2013-02-28, 01:11:05,VALID,917.204,VALID,0,VALID,94.1263,VALID,0,VALID,19.9773,VALID,27,VALID,0.280078,
2013-02-28, 01:12:05,VALID,917.189,VALID,0,VALID,94.477,VALID,0,VALID,19.9953,VALID,28,VALID,0.972266,
2013-02-28, 01:13:05,VALID,917.269,VALID,0,VALID,94.1873,VALID,0,VALID,20.0163,VALID,28,VALID,0.356641,
2013-02-28, 01:14:05,VALID,917.261,VALID,0,VALID,94.1644,VALID,0,VALID,20.0163,VALID,28,VALID,0.0492188,
2013-02-28, 01:15:05,VALID,917.211,VALID,0,VALID,94.1873,VALID,0,VALID,19.9968,VALID,28,VALID,0.218359,
2013-02-28, 01:16:05,VALID,917.218,VALID,0,VALID,94.0958,VALID,0,VALID,20.0163,VALID,28,VALID,0,
2013-02-28, 01:17:05,VALID,917.228,VALID,0,VALID,94.0425,VALID,0,VALID,20.0163,VALID,28,VALID,0,
2013-02-28, 01:18:05,VALID,917.255,VALID,0,VALID,94.1416,VALID,0,VALID,20.0553,VALID,28,VALID,0.00351562,
2013-02-28, 01:19:05,VALID,917.256,VALID,0,VALID,93.5317,VALID,0,VALID,19.9773,VALID,28,VALID,0.0699219,
2013-02-28, 01:20:05,VALID,917.225,VALID,0,VALID,93.3259,VALID,0,VALID,19.8993,VALID,28,VALID,0,
2013-02-28, 01:21:05,VALID,917.212,VALID,0,VALID,93.0285,VALID,0,VALID,19.8408,VALID,28,VALID,0.520703,
2013-02-28, 01:22:05,VALID,917.224,VALID,0,VALID,93.4326,VALID,0,VALID,19.8018,VALID,28,VALID,0.710938,
2013-02-28, 01:23:05,VALID,917.217,VALID,0,VALID,94.0806,VALID,0,VALID,19.8198,VALID,28,VALID,0.651172,
2013-02-28, 01:24:05,VALID,917.223,VALID,0,VALID,94.2407,VALID,0,VALID,19.8408,VALID,358,VALID,0.774609,
2013-02-28, 01:25:05,VALID,917.225,VALID,0,VALID,94.7438,VALID,0,VALID,19.8798,VALID,357,VALID,0.584375,
2013-02-28, 01:26:05,VALID,917.284,VALID,0,VALID,94.8658,VALID,0,VALID,19.8783,VALID,357,VALID,0.248437,
2013-02-28, 01:27:05,VALID,917.266,VALID,0,VALID,95.003,VALID,0,VALID,19.9173,VALID,357,VALID,0.632813,
2013-02-28, 01:28:05,VALID,917.219,VALID,0,VALID,95.0183,VALID,0,VALID,19.9368,VALID,357,VALID,0.544531,
2013-02-28, 01:29:05,VALID,917.259,VALID,0,VALID,95.0869,VALID,0,VALID,19.9563,VALID,357,VALID,0.522266,
2013-02-28, 01:30:05,VALID,917.257,VALID,0,VALID,95.064,VALID,0,VALID,19.9968,VALID,357,VALID,0,
2013-02-28, 01:31:05,VALID,917.233,VALID,0,VALID,94.9954,VALID,0,VALID,19.9968,VALID,357,VALID,0.0597656,
2013-02-28, 01:32:05,VALID,917.237,VALID,0,VALID,95.1936,VALID,0,VALID,20.0358,VALID,357,VALID,0.622266,
2013-02-28, 01:33:05,VALID,917.228,VALID,0,VALID,94.9725,VALID,0,VALID,20.0553,VALID,357,VALID,0.667969,
2013-02-28, 01:34:05,VALID,917.269,VALID,0,VALID,94.8353,VALID,0,VALID,20.0358,VALID,357,VALID,0.672656,
2013-02-28, 01:35:05,VALID,917.23,VALID,0,VALID,94.8353,VALID,0,VALID,19.9953,VALID,357,VALID,0.654297,
2013-02-28, 01:36:05,VALID,917.214,VALID,0,VALID,94.9115,VALID,0,VALID,20.0148,VALID,357,VALID,0.843359,
2013-02-28, 01:37:05,VALID,917.213,VALID,0,VALID,94.942,VALID,0,VALID,19.9953,VALID,4,VALID,0.858594,
2013-02-28, 01:38:05,VALID,917.216,VALID,0,VALID,94.8887,VALID,0,VALID,19.9953,VALID,4,VALID,0.713281,
2013-02-28, 01:39:05,VALID,917.195,VALID,0,VALID,95.1174,VALID,0,VALID,20.0148,VALID,25,VALID,0.923047,
2013-02-28, 01:40:05,VALID,917.183,VALID,0,VALID,95.0564,VALID,0,VALID,20.0358,VALID,7,VALID,0.907422,
2013-02-28, 01:41:05,VALID,917.168,VALID,0,VALID,95.064,VALID,0,VALID,20.0343,VALID,360,VALID,0.867188,
2013-02-28, 01:42:05,VALID,917.162,VALID,0,VALID,95.3079,VALID,0,VALID,20.0944,VALID,355,VALID,1.66211,
2013-02-28, 01:43:05,VALID,917.125,VALID,0,VALID,95.0945,VALID,0,VALID,20.0749,VALID,14,VALID,0.944531,
2013-02-28, 01:44:05,VALID,917.089,VALID,0,VALID,95.3079,VALID,0,VALID,20.0944,VALID,3,VALID,1.52891,
2013-02-28, 01:45:05,VALID,917.092,VALID,0,VALID,95.3384,VALID,0,VALID,20.1334,VALID,10,VALID,1.27617,
2013-02-28, 01:46:05,VALID,917.061,VALID,0,VALID,95.1479,VALID,0,VALID,20.1139,VALID,11,VALID,1.12812,
2013-02-28, 01:47:05,VALID,917.061,VALID,0,VALID,95.0792,VALID,0,VALID,20.0538,VALID,4,VALID,1.16133,
2013-02-28, 01:48:05,VALID,917.037,VALID,0,VALID,95.2851,VALID,0,VALID,20.0928,VALID,21,VALID,1.11172,
2013-02-28, 01:49:05,VALID,916.974,VALID,0,VALID,95.2393,VALID,0,VALID,20.0733,VALID,10,VALID,1.13516,
2013-02-28, 01:50:05,VALID,916.982,VALID,0,VALID,95.4299,VALID,0,VALID,20.1123,VALID,351,VALID,1.18633,
2013-02-28, 01:51:05,VALID,916.967,VALID,0,VALID,95.3918,VALID,0,VALID,20.1318,VALID,356,VALID,0.523047,
2013-02-28, 01:52:05,VALID,916.981,VALID,0,VALID,95.3766,VALID,0,VALID,20.1529,VALID,12,VALID,0.804688,
2013-02-28, 01:53:05,VALID,916.957,VALID,0,VALID,95.3766,VALID,0,VALID,20.1318,VALID,356,VALID,0.712891,
2013-02-28, 01:54:05,VALID,916.908,VALID,0,VALID,95.4299,VALID,0,VALID,20.1708,VALID,360,VALID,0,
2013-02-28, 01:55:05,VALID,916.887,VALID,0,VALID,95.3384,VALID,0,VALID,20.1513,VALID,8,VALID,0,
2013-02-28, 01:56:05,VALID,916.844,VALID,0,VALID,95.5748,VALID,0,VALID,20.1708,VALID,340,VALID,0.0796875,
2013-02-28, 01:57:05,VALID,916.823,VALID,0,VALID,95.5062,VALID,0,VALID,20.1903,VALID,1,VALID,0,
2013-02-28, 01:58:05,VALID,916.862,VALID,0,VALID,95.5519,VALID,0,VALID,20.2098,VALID,2,VALID,0,
2013-02-28, 01:59:05,VALID,916.845,VALID,0,VALID,95.5824,VALID,0,VALID,20.2309,VALID,317,VALID,0,
2013-02-28, 02:00:05,VALID,916.848,VALID,0,VALID,95.6205,VALID,0,VALID,20.2309,VALID,348,VALID,0,
2013-02-28, 02:01:05,VALID,916.79,VALID,0,VALID,95.5748,VALID,0,VALID,20.2489,VALID,8,VALID,0,
2013-02-28, 02:02:05,VALID,916.79,VALID,0,VALID,95.5671,VALID,0,VALID,20.2504,VALID,334,VALID,0,
2013-02-28, 02:03:05,VALID,916.728,VALID,0,VALID,95.5824,VALID,0,VALID,20.2504,VALID,9,VALID,0,
2013-02-28, 02:04:05,VALID,916.719,VALID,0,VALID,95.5671,VALID,0,VALID,20.2309,VALID,3,VALID,0,
2013-02-28, 02:05:05,VALID,916.709,VALID,0,VALID,95.5519,VALID,0,VALID,20.2098,VALID,23,VALID,0,
2013-02-28, 02:06:05,VALID,916.712,VALID,0,VALID,95.529,VALID,0,VALID,20.2114,VALID,5,VALID,0,
2013-02-28, 02:07:05,VALID,916.65,VALID,0,VALID,95.5367,VALID,0,VALID,20.1903,VALID,358,VALID,0,
2013-02-28, 02:08:05,VALID,916.654,VALID,0,VALID,95.6129,VALID,0,VALID,20.2114,VALID,353,VALID,0,
2013-02-28, 02:09:05,VALID,916.629,VALID,0,VALID,95.5976,VALID,0,VALID,20.1919,VALID,341,VALID,0,
2013-02-28, 02:10:05,VALID,916.63,VALID,0,VALID,95.6434,VALID,0,VALID,20.1919,VALID,340,VALID,0,
2013-02-28, 02:11:05,VALID,916.603,VALID,0,VALID,95.6662,VALID,0,VALID,20.1903,VALID,347,VALID,0,
2013-02-28, 02:12:05,VALID,916.627,VALID,0,VALID,95.6739,VALID,0,VALID,20.2114,VALID,346,VALID,0,
2013-02-28, 02:13:05,VALID,916.574,VALID,0,VALID,95.6357,VALID,0,VALID,20.1708,VALID,11,VALID,0,
2013-02-28, 02:14:05,VALID,916.592,VALID,0,VALID,95.6815,VALID,0,VALID,20.1708,VALID,354,VALID,0,
2013-02-28, 02:15:04,VALID,916.554,VALID,0,VALID,95.6815,VALID,0,VALID,20.1513,VALID,345,VALID,0,
2013-02-28, 02:16:04,VALID,916.542,VALID,0,VALID,95.6129,VALID,0,VALID,20.1334,VALID,15,VALID,0,
2013-02-28, 02:17:04,VALID,916.568,VALID,0,VALID,95.6434,VALID,0,VALID,20.0944,VALID,8,VALID,0,
2013-02-28, 02:18:04,VALID,916.556,VALID,0,VALID,95.7196,VALID,0,VALID,20.0944,VALID,330,VALID,0,
2013-02-28, 02:19:04,VALID,916.52,VALID,0,VALID,95.8797,VALID,0,VALID,20.0928,VALID,8,VALID,0,
2013-02-28, 02:20:04,VALID,916.487,VALID,0,VALID,95.8721,VALID,0,VALID,20.1123,VALID,24,VALID,0,
2013-02-28, 02:21:04,VALID,916.49,VALID,0,VALID,95.9026,VALID,0,VALID,20.1123,VALID,343,VALID,0,
2013-02-28, 02:22:04,VALID,916.486,VALID,0,VALID,95.9254,VALID,0,VALID,20.1123,VALID,341,VALID,0,
2013-02-28, 02:23:04,VALID,916.453,VALID,0,VALID,95.9559,VALID,0,VALID,20.1513,VALID,37,VALID,0,
2013-02-28, 02:24:04,VALID,916.452,VALID,0,VALID,96.0017,VALID,0.107441,VALID,20.1708,VALID,349,VALID,0,
2013-02-28, 02:25:04,VALID,916.401,VALID,0,VALID,96.0017,VALID,0,VALID,20.1708,VALID,34,VALID,0,
2013-02-28, 02:26:04,VALID,916.428,VALID,0,VALID,96.0627,VALID,0,VALID,20.1903,VALID,355,VALID,0,
2013-02-28, 02:27:04,VALID,916.383,VALID,0,VALID,96.1084,VALID,0.107441,VALID,20.2293,VALID,7,VALID,0,
2013-02-28, 02:28:04,VALID,916.364,VALID,0,VALID,96.1541,VALID,0.107441,VALID,20.2489,VALID,9,VALID,0,
2013-02-28, 02:29:04,VALID,916.305,VALID,0,VALID,96.1618,VALID,0.107441,VALID,20.2489,VALID,9,VALID,0,
2013-02-28, 02:30:04,VALID,916.314,VALID,0,VALID,96.1694,VALID,0.107441,VALID,20.2489,VALID,332,VALID,0,
2013-02-28, 02:31:04,VALID,916.236,VALID,0,VALID,96.177,VALID,0.107441,VALID,20.2489,VALID,15,VALID,0,
2013-02-28, 02:32:04,VALID,916.217,VALID,0,VALID,96.1541,VALID,0,VALID,20.2684,VALID,347,VALID,0,
2013-02-28, 02:33:04,VALID,916.189,VALID,0,VALID,96.1618,VALID,0.107441,VALID,20.2684,VALID,340,VALID,0,
2013-02-28, 02:34:04,VALID,916.15,VALID,0,VALID,96.1541,VALID,0,VALID,20.2684,VALID,342,VALID,0,
2013-02-28, 02:35:04,VALID,916.115,VALID,0,VALID,96.1465,VALID,0,VALID,20.2489,VALID,30,VALID,0,
2013-02-28, 02:36:04,VALID,916.059,VALID,0,VALID,96.1389,VALID,0.107441,VALID,20.2489,VALID,344,VALID,0,
2013-02-28, 02:37:04,VALID,916.086,VALID,0,VALID,96.1618,VALID,0,VALID,20.2278,VALID,6,VALID,0,
2013-02-28, 02:38:04,VALID,916.017,VALID,0,VALID,96.1236,VALID,0,VALID,20.2098,VALID,45,VALID,0,
2013-02-28, 02:39:04,VALID,916.029,VALID,0,VALID,96.1236,VALID,0,VALID,20.2519,VALID,23,VALID,0,
2013-02-28, 02:40:04,VALID,916.021,VALID,0,VALID,96.116,VALID,0,VALID,20.2309,VALID,352,VALID,0,
2013-02-28, 02:41:04,VALID,915.975,VALID,0,VALID,96.0855,VALID,0,VALID,20.2309,VALID,352,VALID,0,
2013-02-28, 02:42:04,VALID,915.948,VALID,0,VALID,96.0703,VALID,0,VALID,20.2309,VALID,352,VALID,0,
2013-02-28, 02:43:04,VALID,915.975,VALID,0,VALID,96.0703,VALID,0,VALID,20.2114,VALID,29,VALID,0,
2013-02-28, 02:44:04,VALID,915.956,VALID,0,VALID,96.0627,VALID,0,VALID,20.2309,VALID,2,VALID,0,
2013-02-28, 02:45:04,VALID,915.947,VALID,0,VALID,96.0932,VALID,0,VALID,20.2309,VALID,351,VALID,0,
2013-02-28, 02:46:04,VALID,915.919,VALID,0,VALID,96.0855,VALID,0,VALID,20.2309,VALID,350,VALID,0,
2013-02-28, 02:47:04,VALID,915.917,VALID,0,VALID,96.0779,VALID,0,VALID,20.2114,VALID,12,VALID,0,
2013-02-28, 02:48:04,VALID,915.906,VALID,0,VALID,96.0855,VALID,0,VALID,20.2114,VALID,339,VALID,0,
2013-02-28, 02:49:04,VALID,915.891,VALID,0,VALID,96.1084,VALID,0,VALID,20.2324,VALID,322,VALID,0,
2013-02-28, 02:50:04,VALID,915.877,VALID,0,VALID,96.1084,VALID,0,VALID,20.2114,VALID,5,VALID,0,
2013-02-28, 02:51:04,VALID,915.901,VALID,0,VALID,96.1465,VALID,0,VALID,20.2309,VALID,2,VALID,0,
2013-02-28, 02:52:04,VALID,915.891,VALID,0,VALID,96.1618,VALID,0,VALID,20.2309,VALID,2,VALID,0,
2013-02-28, 02:53:04,VALID,915.882,VALID,0,VALID,96.1541,VALID,0,VALID,20.2293,VALID,4,VALID,0,
2013-02-28, 02:54:04,VALID,915.845,VALID,0,VALID,96.1694,VALID,0,VALID,20.2684,VALID,4,VALID,0,
2013-02-28, 02:55:04,VALID,915.841,VALID,0,VALID,96.177,VALID,0.107441,VALID,20.2684,VALID,340,VALID,0,
2013-02-28, 02:56:04,VALID,915.834,VALID,0,VALID,96.1541,VALID,0,VALID,20.2879,VALID,328,VALID,0,
2013-02-28, 02:57:04,VALID,915.857,VALID,0,VALID,96.1541,VALID,0,VALID,20.2879,VALID,349,VALID,0,
2013-02-28, 02:58:04,VALID,915.829,VALID,0,VALID,96.1618,VALID,0.107441,VALID,20.3074,VALID,19,VALID,0,
2013-02-28, 02:59:04,VALID,915.82,VALID,0,VALID,96.1313,VALID,0,VALID,20.3074,VALID,352,VALID,0,
2013-02-28, 03:00:04,VALID,915.837,VALID,0,VALID,96.116,VALID,0,VALID,20.3269,VALID,339,VALID,0.35625,
2013-02-28, 03:01:04,VALID,915.803,VALID,0,VALID,96.1084,VALID,0.107441,VALID,20.3464,VALID,296,VALID,0,
2013-02-28, 03:02:04,VALID,915.768,VALID,0,VALID,96.116,VALID,0,VALID,20.3659,VALID,295,VALID,0,
2013-02-28, 03:03:04,VALID,915.767,VALID,0,VALID,96.0779,VALID,0.107441,VALID,20.3659,VALID,350,VALID,0,
2013-02-28, 03:04:04,VALID,915.76,VALID,0,VALID,96.1008,VALID,0,VALID,20.3854,VALID,354,VALID,0,
2013-02-28, 03:05:04,VALID,915.738,VALID,0,VALID,96.0779,VALID,0.107441,VALID,20.3854,VALID,12,VALID,0,
2013-02-28, 03:06:04,VALID,915.685,VALID,0,VALID,96.0779,VALID,0.107441,VALID,20.4033,VALID,20,VALID,0,
2013-02-28, 03:07:04,VALID,915.618,VALID,0,VALID,96.0703,VALID,0,VALID,20.4244,VALID,28,VALID,0,
2013-02-28, 03:08:04,VALID,915.608,VALID,0,VALID,96.0855,VALID,0,VALID,20.4259,VALID,6,VALID,0,
2013-02-28, 03:09:04,VALID,915.612,VALID,0,VALID,96.0703,VALID,0,VALID,20.4259,VALID,303,VALID,0,
2013-02-28, 03:10:04,VALID,915.597,VALID,0,VALID,96.055,VALID,0,VALID,20.465,VALID,298,VALID,0,
2013-02-28, 03:11:04,VALID,915.58,VALID,0,VALID,96.0017,VALID,0,VALID,20.4259,VALID,307,VALID,0,
2013-02-28, 03:12:04,VALID,915.544,VALID,0,VALID,95.9712,VALID,0,VALID,20.4259,VALID,16,VALID,0,
2013-02-28, 03:13:04,VALID,915.531,VALID,0,VALID,95.9483,VALID,0,VALID,20.4064,VALID,334,VALID,0,
2013-02-28, 03:14:04,VALID,915.522,VALID,0,VALID,95.8035,VALID,0,VALID,20.3659,VALID,357,VALID,0,
2013-02-28, 03:15:04,VALID,915.513,VALID,0,VALID,95.6891,VALID,0,VALID,20.3674,VALID,355,VALID,0,
2013-02-28, 03:16:04,VALID,915.542,VALID,0,VALID,95.6357,VALID,0,VALID,20.3674,VALID,334,VALID,0,
2013-02-28, 03:17:04,VALID,915.525,VALID,0,VALID,95.59,VALID,0,VALID,20.3869,VALID,338,VALID,0,
2013-02-28, 03:18:04,VALID,915.506,VALID,0,VALID,95.5748,VALID,0,VALID,20.3869,VALID,3,VALID,0,
2013-02-28, 03:19:04,VALID,915.515,VALID,0,VALID,95.5367,VALID,0,VALID,20.3869,VALID,16,VALID,0,
2013-02-28, 03:20:04,VALID,915.516,VALID,0,VALID,95.468,VALID,0,VALID,20.3674,VALID,16,VALID,0,
2013-02-28, 03:21:04,VALID,915.498,VALID,0,VALID,95.4604,VALID,0,VALID,20.3479,VALID,16,VALID,0,
2013-02-28, 03:22:04,VALID,915.507,VALID,0,VALID,95.468,VALID,0,VALID,20.3269,VALID,16,VALID,0,
2013-02-28, 03:23:04,VALID,915.513,VALID,0,VALID,95.3994,VALID,0,VALID,20.3284,VALID,356,VALID,0,
2013-02-28, 03:24:04,VALID,915.519,VALID,0,VALID,95.4147,VALID,0,VALID,20.3089,VALID,355,VALID,0,
2013-02-28, 03:25:04,VALID,915.539,VALID,0,VALID,95.4452,VALID,0,VALID,20.2894,VALID,1,VALID,0,
2013-02-28, 03:26:04,VALID,915.509,VALID,0,VALID,95.3384,VALID,0,VALID,20.2699,VALID,1,VALID,0,
2013-02-28, 03:27:04,VALID,915.512,VALID,0,VALID,95.3689,VALID,0,VALID,20.2504,VALID,12,VALID,0,
2013-02-28, 03:28:04,VALID,915.517,VALID,0,VALID,95.3079,VALID,0,VALID,20.2504,VALID,14,VALID,0,
2013-02-28, 03:29:04,VALID,915.525,VALID,0,VALID,95.3537,VALID,0,VALID,20.2519,VALID,321,VALID,0,
2013-02-28, 03:30:04,VALID,915.522,VALID,0,VALID,95.3156,VALID,0,VALID,20.2114,VALID,350,VALID,0,
2013-02-28, 03:31:04,VALID,915.548,VALID,0,VALID,95.3156,VALID,0,VALID,20.1919,VALID,354,VALID,0,
2013-02-28, 03:32:04,VALID,915.551,VALID,0,VALID,95.3308,VALID,0,VALID,20.1903,VALID,353,VALID,0,
2013-02-28, 03:33:04,VALID,915.547,VALID,0,VALID,95.3156,VALID,0,VALID,20.2129,VALID,353,VALID,0,
2013-02-28, 03:34:04,VALID,915.564,VALID,0,VALID,95.2775,VALID,0,VALID,20.1513,VALID,353,VALID,0,
2013-02-28, 03:35:04,VALID,915.553,VALID,0,VALID,95.2698,VALID,0,VALID,20.1724,VALID,353,VALID,0,
2013-02-28, 03:36:04,VALID,915.547,VALID,0,VALID,95.3156,VALID,0,VALID,20.1724,VALID,353,VALID,0,
2013-02-28, 03:37:04,VALID,915.516,VALID,0,VALID,95.3308,VALID,0,VALID,20.1513,VALID,353,VALID,0,
2013-02-28, 03:38:04,VALID,915.556,VALID,0,VALID,95.3232,VALID,0.107441,VALID,20.1303,VALID,353,VALID,0,
2013-02-28, 03:39:04,VALID,915.587,VALID,0,VALID,95.3384,VALID,0,VALID,20.1919,VALID,353,VALID,0,
2013-02-28, 03:40:04,VALID,915.562,VALID,0,VALID,95.3156,VALID,0,VALID,20.1513,VALID,353,VALID,0,
2013-02-28, 03:41:04,VALID,915.523,VALID,0,VALID,95.3079,VALID,0.107441,VALID,20.1513,VALID,354,VALID,0,
2013-02-28, 03:42:04,VALID,915.516,VALID,0,VALID,95.2317,VALID,0.107441,VALID,20.1724,VALID,359,VALID,0,
2013-02-28, 03:43:04,VALID,915.489,VALID,0,VALID,95.2622,VALID,0,VALID,20.1108,VALID,8,VALID,0,
2013-02-28, 03:44:04,VALID,915.496,VALID,0,VALID,95.3384,VALID,0.107441,VALID,20.1318,VALID,343,VALID,0,
2013-02-28, 03:45:04,VALID,915.519,VALID,0,VALID,95.3766,VALID,0,VALID,20.1318,VALID,332,VALID,0,
2013-02-28, 03:46:04,VALID,915.501,VALID,0,VALID,95.3537,VALID,0.107441,VALID,20.1513,VALID,336,VALID,0,
2013-02-28, 03:47:04,VALID,915.486,VALID,0,VALID,95.2851,VALID,0,VALID,20.1513,VALID,344,VALID,0,
2013-02-28, 03:48:04,VALID,915.393,VALID,0,VALID,95.247,VALID,0,VALID,20.1708,VALID,289,VALID,0,
2013-02-28, 03:49:04,VALID,915.399,VALID,0,VALID,95.1707,VALID,0.107441,VALID,20.1513,VALID,289,VALID,0,
2013-02-28, 03:50:04,VALID,915.392,VALID,0,VALID,95.0869,VALID,0.107441,VALID,20.1498,VALID,308,VALID,0,
2013-02-28, 03:51:04,VALID,915.454,VALID,0,VALID,95.1174,VALID,0.107441,VALID,20.1708,VALID,324,VALID,0,
2013-02-28, 03:52:04,VALID,915.466,VALID,0,VALID,94.9649,VALID,0.107441,VALID,20.1513,VALID,324,VALID,0,